Weather History for Lorain / Elyria, OH

Change the Weather History Date:

Saturday, October 6, 2012

  Actual Average (KCLE) Record (KCLE)
Temperature  
Mean Temperature 48 °F 57 °F  
Max Temperature 55 °F 66 °F 90 °F (1946)
Min Temperature 41 °F 48 °F 34 °F (1964)
Degree Days  
Heating Degree Days 17 9  
Month to date heating degree days 47  
Since 1 July heating degree days 150  
Cooling Degree Days 0 1  
Month to date cooling degree days 6  
Year to date cooling degree days 810  
Moisture  
Dew Point 38 °F    
Average Humidity 76    
Maximum Humidity 93    
Minimum Humidity 45    
Precipitation  
Precipitation 0.44 in 0.10 in 1.35 in (2013)
Month to date precipitation 0.64  
Year to date precipitation 29.99  
Snow  
Snow 0.00 in 0.00 in - ()
Month to date snowfall 0.0  
Since 1 July snowfall 0.0  
Since 1 September snowfall 0.0  
Snow Depth -    
Sea Level Pressure  
Sea Level Pressure 30.02 in    
Wind  
Wind Speed 8 mph (WNW)    
Max Wind Speed 15 mph    
Max Gust Speed 24 mph    
Visibility 9 miles    
Events Rain    
T = Trace of Precipitation, MM = Missing Value Source: NWS Daily Summary

Daily Weather History Graph

Daily Weather History Graph

Search for Another Location

Airport:

Trip Planner

Search our weather history database for the weather conditions in past years. The results will help you decide how hot, cold, wet, or windy it might be!

Date:

Astronomy

Oct. 06, 2012 Rise Set
Actual Time 7:31 AM EDT 7:01 PM EDT
Civil Twilight 7:03 AM EDT 7:28 PM EDT
Nautical Twilight 6:31 AM EDT 8:00 PM EDT
Astronomical Twilight 5:59 AM EDT 8:33 PM EDT
Moon 11:13 PM EDT (10/6) 1:27 PM EDT (10/6)
Length of Visible Light 12h 25m
Length of Day
11h 30m
Waning Gibbous, 65% of the Moon is Illuminated
Oct 6
Waning Gibbous
Oct 8
Last Quarter
Oct 15
New
Oct 21
First Quarter
Oct 29
Full

Hourly Weather History & Observations

Time (EDT) Temp. Windchill Dew Point Humidity Pressure Visibility Wind Dir Wind Speed Gust Speed Precip Events Conditions
12:53 AM 46.0 °F 43.1 °F 42.1 °F 86% 29.97 in 8.0 mi NNW 5.8 mph - 0.03 in Rain Light Rain
1:17 AM 46.4 °F 42.4 °F 42.8 °F 87% 29.97 in 5.0 mi NW 8.1 mph - 0.10 in Rain Rain
1:24 AM 46.4 °F 41.9 °F 42.8 °F 87% 29.98 in 3.0 mi WNW 9.2 mph - 0.15 in Rain Heavy Rain
1:53 AM 46.0 °F 43.1 °F 43.0 °F 89% 29.99 in 4.0 mi WNW 5.8 mph - 0.28 in Rain Rain
2:00 AM 46.4 °F 41.9 °F 42.8 °F 87% 29.98 in 4.0 mi WNW 9.2 mph - 0.03 in Rain Rain
2:42 AM 44.6 °F 43.1 °F 42.8 °F 93% 29.96 in 6.0 mi WNW 3.5 mph - 0.12 in Rain Light Rain
2:50 AM 44.6 °F 43.1 °F 42.8 °F 93% 29.97 in 10.0 mi West 3.5 mph - 0.12 in Rain Light Rain
2:53 AM 44.1 °F - 42.1 °F 93% 29.97 in 10.0 mi Calm Calm - 0.12 in Rain Light Rain
3:22 AM 44.6 °F 40.2 °F 42.8 °F 93% 29.97 in 10.0 mi West 8.1 mph - 0.00 in   Overcast
3:51 AM 44.6 °F 40.2 °F 41.0 °F 87% 29.96 in 10.0 mi West 8.1 mph - 0.00 in   Overcast
3:53 AM 44.1 °F 39.0 °F 41.0 °F 89% 29.98 in 10.0 mi West 9.2 mph - 0.00 in   Overcast
4:53 AM 44.1 °F 39.5 °F 41.0 °F 89% 29.98 in 10.0 mi West 8.1 mph - N/A   Overcast
5:11 AM 44.6 °F 40.2 °F 39.2 °F 81% 29.97 in 10.0 mi West 8.1 mph - N/A   Overcast
5:53 AM 43.0 °F 37.2 °F 39.9 °F 89% 29.99 in 10.0 mi West 10.4 mph - N/A   Overcast
6:37 AM 42.8 °F 37.0 °F 39.2 °F 87% 29.99 in 10.0 mi West 10.4 mph - N/A   Scattered Clouds
7:22 AM 41.0 °F 35.2 °F 37.4 °F 87% 30.00 in 10.0 mi West 9.2 mph - N/A   Mostly Cloudy
7:33 AM 41.0 °F 35.2 °F 37.4 °F 87% 30.00 in 9.0 mi West 9.2 mph - N/A   Mostly Cloudy
7:42 AM 41.0 °F 35.8 °F 37.4 °F 87% 30.01 in 8.0 mi West 8.1 mph - N/A   Scattered Clouds
7:53 AM 41.0 °F 36.4 °F 37.9 °F 89% 30.02 in 7.0 mi West 6.9 mph - N/A   Scattered Clouds
8:53 AM 42.1 °F 37.1 °F 39.0 °F 89% 30.04 in 10.0 mi West 8.1 mph - N/A   Clear
9:53 AM 45.0 °F 40.1 °F 39.0 °F 80% 30.06 in 10.0 mi West 9.2 mph - N/A   Clear
10:53 AM 48.0 °F - 37.9 °F 68% 30.06 in 10.0 mi West 15.0 mph 19.6 mph N/A   Partly Cloudy
11:53 AM 50.0 °F - 35.1 °F 57% 30.06 in 10.0 mi WNW 10.4 mph - 0.01 in   Scattered Clouds
12:53 PM 52.0 °F - 36.0 °F 54% 30.06 in 10.0 mi NNW 10.4 mph - N/A   Mostly Cloudy
1:53 PM 51.1 °F - 36.0 °F 56% 30.06 in 10.0 mi NW 10.4 mph 19.6 mph N/A   Mostly Cloudy
2:53 PM 54.0 °F - 34.0 °F 47% 30.06 in 10.0 mi West 13.8 mph 20.7 mph N/A   Scattered Clouds
3:53 PM 55.0 °F - 34.0 °F 45% 30.05 in 10.0 mi NW 12.7 mph 24.2 mph N/A   Partly Cloudy
4:53 PM 54.0 °F - 33.1 °F 45% 30.06 in 10.0 mi NW 10.4 mph 19.6 mph N/A   Mostly Cloudy
5:53 PM 51.1 °F - 32.0 °F 48% 30.07 in 10.0 mi WNW 12.7 mph - N/A   Mostly Cloudy
7:53 PM 48.0 °F - 35.1 °F 61% 30.12 in 10.0 mi WNW 6.9 mph - N/A   Overcast
8:53 PM 48.0 °F - 34.0 °F 58% 30.12 in 10.0 mi West 6.9 mph - N/A   Overcast
9:53 PM 46.9 °F - 33.1 °F 59% 30.13 in 10.0 mi West 6.9 mph - N/A   Overcast
10:53 PM 46.0 °F 42.5 °F 34.0 °F 63% 30.12 in 10.0 mi West 6.9 mph - N/A   Overcast
11:53 PM 45.0 °F 42.6 °F 35.1 °F 68% 30.12 in 10.0 mi West 4.6 mph - N/A   Mostly Cloudy